User: anonymous   Login
Location: Strohbehn Observatory
(42.4649°N, 93.8239°W)
Time: 07:03:33
(UTC-05:00)
Language:

SL-16 R/B - Orbit

View from above orbital plane
View from above orbital plane
View from above satellite
View from above satellite

Ground track
Ground track

The orbit data is extracted from the following two-line orbital elements,

1 31793U 07029B   17085.91886538 -.00000299 +00000-0 -13103-3 0  9993
2 31793 070.9762 201.9672 0002985 270.2834 228.0847 14.14379034503042
Epoch (UTC): 26 March 2017 22:03:09
Eccentricity: 0.0002985
inclination: 70.9762°
perigee height: 842 km
apogee height: 846 km
right ascension of ascending node: 201.9672°
argument of perigee: 270.2834°
revolutions per day: 14.14379034
mean anomaly at epoch: 228.0847°
orbit number at epoch: 50304

The dashed part of the orbit path shows where the satellite is in the earth's shadow,  

DLR